Theta_e
299 299 299 299 299 299 299 299 299 299 299 298 298 298 299 299 300 304 311 313 314 314 309 315 319 315 317 321 320 318 321 322 323 323 324 325 323 322 321 322 322 323 324 339 346
299 299 298 298 298 298 298 298 298 298 298 298 298 298 298 298 301 308 308 309 310 311 311 312 314 319 317 320 322 322 321 322 323 324 325 324 323 322 321 321 322 322 323 336 343
298 298 299 299 299 299 299 299 299 299 299 299 298 298 298 298 307 313 314 311 311 310 311 313 313 318 319 319 322 321 321 323 323 323 323 323 323 321 322 322 321 321 322 330 340
298 298 298 298 299 300 300 300 300 300 300 300 299 300 306 306 310 316 312 313 314 312 315 314 315 317 322 322 322 321 320 320 322 322 321 322 322 322 321 322 322 321 321 324 333
298 298 299 300 300 300 300 300 300 301 302 302 302 305 306 308 308 307 310 311 314 317 316 317 316 317 320 321 322 323 322 320 320 321 321 319 321 321 322 321 321 320 320 320 329
299 300 300 300 300 300 300 301 302 302 303 303 303 306 306 309 306 306 307 311 316 315 320 318 317 317 319 321 321 321 322 321 320 320 320 320 320 320 320 320 320 320 319 319 320
300 300 301 301 300 300 301 301 302 302 303 303 303 307 307 307 307 306 307 307 309 311 315 319 318 317 317 321 320 321 322 321 321 320 320 319 319 320 320 320 319 318 318 318 319
300 301 301 301 300 300 301 302 302 304 305 304 304 309 309 308 308 308 308 307 308 310 311 314 319 317 317 318 318 320 321 322 321 320 320 319 320 321 319 319 319 318 319 319 319
301 301 301 301 301 301 301 302 305 305 306 306 311 309 310 308 309 309 309 308 308 309 312 314 315 319 318 319 319 320 320 321 322 322 321 319 320 321 321 319 319 319 319 319 319
301 301 301 302 301 301 302 305 308 307 309 310 309 310 310 309 307 309 308 311 311 308 309 315 317 319 321 320 323 321 321 322 321 323 321 321 321 322 321 321 320 320 320 319 319
301 301 302 302 302 302 305 310 309 311 311 309 310 310 308 309 308 307 307 307 311 310 311 311 318 322 322 321 320 323 323 323 323 322 321 321 322 322 322 322 321 321 321 320 320
301 301 302 302 302 306 308 310 308 307 308 307 308 308 309 309 309 309 306 310 312 313 312 311 313 317 319 321 321 322 324 325 324 323 321 322 322 322 323 322 322 321 322 321 321
301 301 302 302 306 310 308 309 307 307 308 309 309 308 310 310 311 310 308 307 313 314 314 313 311 313 317 321 322 322 323 324 324 322 323 322 323 323 323 322 322 321 321 321 321
301 301 302 302 307 309 310 308 308 306 310 313 311 310 310 312 313 311 310 308 311 314 314 315 313 314 314 317 320 323 322 323 323 323 322 322 324 324 324 323 323 322 322 322 322
301 302 303 306 307 310 308 307 307 307 320 312 312 311 311 311 312 312 311 311 313 311 312 316 315 315 315 315 318 321 321 322 324 324 323 323 323 326 324 324 323 323 322 322 322
301 302 302 308 308 308 307 308 307 315 319 315 311 312 313 313 314 314 312 311 309 312 312 312 314 314 316 315 317 319 321 322 323 324 324 325 323 325 326 325 324 323 322 322 322
302 302 304 307 308 307 308 311 317 317 313 313 312 312 313 315 315 316 316 313 314 314 313 311 311 315 316 317 316 318 322 323 323 323 325 325 324 326 326 325 324 324 322 321 322
302 303 309 308 307 308 311 314 318 314 313 311 312 313 316 315 315 313 314 316 312 314 316 315 311 314 316 317 317 320 323 325 325 325 324 324 324 324 328 327 324 322 323 325 326
303 309 309 306 308 309 313 318 314 313 312 312 311 314 315 314 313 316 316 317 314 314 317 318 312 314 316 319 318 319 322 324 322 322 323 325 328 333 331 331 332 331 330 329 328
307 309 309 307 309 311 315 312 312 310 311 312 314 313 315 314 313 314 317 317 315 315 315 319 314 313 317 318 320 321 322 324 323 324 324 325 329 331 332 333 332 331 329 331 332
309 310 308 309 310 310 314 312 310 309 310 312 314 314 313 313 312 315 318 315 312 313 316 318 320 316 315 317 321 320 321 323 323 323 326 326 328 329 331 331 330 328 327 328 331
310 312 308 309 311 310 311 309 308 310 310 311 311 312 311 311 313 314 318 312 311 313 318 316 321 317 317 319 318 318 321 323 324 326 325 326 337 329 331 330 328 328 329 329 329
308 309 308 309 313 311 309 309 310 310 311 312 311 312 309 311 314 315 315 314 313 314 315 317 321 323 321 319 319 321 321 321 325 327 327 328 339 332 329 328 327 327 327 328 327
307 310 307 308 309 309 310 310 310 310 310 310 311 311 311 312 312 315 315 314 313 314 314 316 320 322 324 321 322 323 321 322 324 327 325 329 334 330 327 326 325 324 323 323 323
306 308 306 310 309 309 309 310 310 310 309 309 311 311 313 312 313 315 313 313 313 315 316 315 323 319 321 320 319 320 323 322 324 324 327 334 332 328 324 323 322 321 321 321 321
304 304 304 305 308 311 309 310 309 310 310 312 311 312 313 314 313 313 314 314 314 314 315 317 326 321 319 321 324 322 322 321 322 324 325 330 332 325 321 320 320 320 321 321 320
303 303 303 306 310 311 311 309 310 310 310 310 311 312 313 313 312 313 314 315 316 316 317 320 324 322 325 325 321 325 322 322 323 323 325 332 326 322 321 320 320 320 320 320 319
Wind_Speed
17 18 18 19 19 20 21 21 22 22 23 24 25 26 26 25 26 26 33 32 15 20 19 12 13 22 24 25 27 25 17 21 27 25 20 19 10 14 18 21 20 14 19 7 11
20 21 20 20 20 21 21 22 23 23 24 25 26 27 28 27 29 35 34 36 34 36 27 22 24 22 31 28 31 22 18 30 22 21 22 14 15 16 16 16 17 18 20 7 10
21 22 22 23 24 25 26 27 27 27 26 26 26 26 27 23 26 12 11 17 31 36 27 25 26 27 31 29 36 32 27 20 23 23 18 14 16 19 16 16 20 23 20 14 13
22 23 25 26 27 26 26 26 26 26 26 26 28 26 21 13 9 8 12 11 8 22 22 25 31 34 27 31 35 27 31 31 28 20 15 16 17 18 19 17 13 18 20 18 17
23 24 25 26 26 26 25 24 22 22 22 22 25 21 17 19 30 27 28 20 13 7 20 26 33 36 31 28 32 33 27 26 30 30 18 19 22 21 22 17 14 10 16 13 14
24 26 29 31 33 33 31 29 23 23 26 23 22 16 17 27 28 26 26 22 20 19 21 25 25 35 29 32 30 28 30 29 23 23 23 20 20 21 23 19 20 16 17 19 19
28 30 32 33 32 31 29 26 25 29 27 23 18 14 20 40 21 24 20 21 23 28 28 28 29 26 38 27 36 26 25 22 28 23 24 23 21 25 23 19 19 21 24 23 24
30 33 34 35 33 32 28 26 30 22 20 15 16 10 16 16 16 23 26 31 24 22 28 29 27 31 29 29 14 27 24 24 24 29 24 23 24 24 27 28 25 23 22 23 23
32 34 35 35 32 31 29 31 21 18 17 9 5 9 16 10 11 13 11 25 30 28 20 24 33 31 26 23 22 17 26 33 26 27 23 24 16 22 25 33 29 27 25 22 21
34 36 37 36 33 29 28 26 21 19 8 10 11 7 15 17 14 8 6 13 18 27 30 21 22 21 23 21 26 31 28 24 27 24 26 25 25 18 27 19 28 27 25 25 24
36 38 38 35 30 23 27 25 26 8 8 22 24 23 28 17 16 26 26 17 14 21 26 31 18 26 38 36 26 24 24 26 20 24 20 25 22 23 14 19 21 25 26 25 26
36 38 37 31 21 15 17 15 15 13 19 26 27 28 23 15 14 14 15 8 12 17 20 25 27 30 29 32 32 31 27 25 24 19 20 21 24 21 19 14 20 22 22 25 24
38 39 34 22 15 14 16 12 16 13 8 14 11 8 8 8 7 20 11 22 14 19 20 24 32 30 29 29 32 29 30 22 21 16 18 20 23 25 23 20 17 16 25 24 24
39 39 26 22 11 18 9 20 14 7 5 7 4 3 7 9 8 16 5 16 19 24 20 23 29 25 33 30 27 27 29 25 18 20 15 23 15 23 22 21 18 20 20 24 25
40 34 20 16 17 14 20 19 12 5 5 9 8 12 25 18 29 3 13 3 15 24 21 18 25 29 31 34 30 24 24 25 19 22 17 20 14 22 22 24 23 20 23 22 25
41 29 13 12 13 15 20 15 5 4 7 13 16 21 23 25 3 9 8 11 3 10 26 25 23 25 23 31 30 25 22 24 17 16 14 21 19 19 23 26 22 21 26 23 24
41 20 9 10 17 22 16 9 6 10 20 15 24 28 21 16 12 11 9 8 6 6 20 24 26 23 21 23 31 24 20 16 15 13 17 20 16 17 23 23 21 23 27 28 22
38 9 10 11 23 15 11 5 10 20 18 24 21 25 2 12 14 10 15 11 17 15 10 19 19 24 17 20 20 27 24 17 28 22 20 24 13 13 14 11 22 30 24 19 19
32 9 6 21 19 10 15 6 8 14 18 15 23 14 15 17 14 9 10 3 4 14 8 15 20 25 23 14 26 33 26 29 20 20 16 17 14 14 11 13 14 20 22 15 17
23 11 6 24 13 12 7 4 10 9 16 13 5 10 17 19 14 15 10 6 6 8 5 7 15 27 23 22 21 27 27 26 19 21 21 21 22 13 15 16 15 15 17 14 16
15 10 13 20 10 16 4 7 16 23 25 3 9 6 10 12 10 8 3 4 4 7 11 6 7 19 23 19 24 16 20 23 23 14 19 15 18 14 23 21 18 16 21 23 22
14 7 17 21 11 9 9 13 19 19 25 8 6 5 4 9 6 8 7 1 8 9 3 5 6 15 28 23 27 24 28 31 13 24 15 12 5 4 26 20 22 24 29 29 28
18 11 8 14 6 9 11 15 16 20 20 8 7 4 2 6 7 11 10 14 4 11 3 6 5 12 21 5 10 18 27 26 23 15 20 11 8 16 22 18 22 25 29 29 30
14 6 10 8 8 13 16 13 17 22 17 17 13 12 8 10 6 9 12 9 26 10 15 8 5 18 17 23 24 27 22 22 22 15 9 9 18 16 19 17 20 26 30 30 30
13 6 6 7 10 16 12 13 22 15 11 19 7 15 21 6 11 5 13 13 10 3 6 4 8 13 5 12 22 23 27 28 25 14 15 25 21 21 22 18 25 30 32 32 31
12 9 12 20 15 13 7 16 18 25 17 10 8 25 19 9 10 19 18 14 5 6 2 7 5 15 8 13 23 22 25 25 21 15 8 19 21 22 27 27 26 28 31 32 30
11 11 6 15 14 11 13 17 21 20 11 25 24 20 20 19 29 32 29 25 16 6 6 5 6 4 8 21 27 25 23 22 11 9 7 12 17 24 21 19 25 29 30 31 30
Wind_Direction
353 349 346 342 336 333 330 327 325 322 318 317 315 312 309 304 297 294 272 261 254 259 243 231 227 217 218 227 222 221 239 238 238 240 244 248 205 229 233 248 236 231 224 115 134
349 345 341 338 334 330 326 324 321 318 316 315 313 311 309 311 308 290 286 273 256 247 239 234 225 213 213 219 221 223 228 236 239 244 249 238 216 218 207 221 224 218 205 144 161
346 342 338 335 331 329 327 325 324 322 320 317 311 306 304 310 310 294 249 272 250 247 238 237 229 218 219 218 215 219 234 232 245 255 257 220 225 228 206 221 214 206 209 195 190
343 339 337 334 332 330 327 323 320 317 315 310 305 305 305 306 272 293 307 331 261 241 229 219 223 223 222 219 216 221 230 246 259 238 252 242 244 233 224 232 235 203 209 189 198
344 339 336 333 330 329 329 326 320 312 308 303 297 295 299 258 248 274 283 283 274 215 212 215 218 223 221 227 218 223 231 236 236 251 227 234 245 242 234 216 227 208 208 210 211
347 345 340 337 339 338 336 334 332 325 318 308 304 287 262 260 265 262 264 258 252 244 233 224 225 223 236 229 230 222 230 237 250 235 236 234 239 235 236 223 223 207 213 221 218
349 343 339 335 337 334 331 326 327 322 316 316 310 262 251 251 276 263 258 252 245 236 241 231 228 221 225 227 235 231 233 233 234 229 237 228 240 232 224 214 208 225 228 231 222
346 340 337 333 335 331 326 322 324 312 319 311 305 241 249 284 299 272 266 254 246 237 234 235 232 239 228 234 224 231 236 230 216 225 222 221 240 224 225 220 218 224 220 217 220
344 339 335 330 331 326 323 324 327 300 315 301 269 214 271 326 294 299 249 251 245 238 243 233 233 232 233 229 220 213 220 224 227 208 215 210 226 245 217 216 222 218 218 212 215
343 340 336 330 328 325 325 332 330 286 275 266 265 241 234 305 297 250 293 268 239 229 235 226 225 223 226 217 214 206 216 221 218 206 206 218 226 254 206 215 210 218 213 216 215
343 340 336 332 328 330 337 343 357 302 227 288 263 258 288 296 300 260 264 291 235 220 211 215 215 209 213 219 226 226 222 219 211 223 197 222 224 219 206 228 201 210 211 211 210
342 340 337 338 339 349 351 340 341 305 299 289 264 259 268 287 291 302 232 169 212 212 226 210 222 225 219 217 227 232 238 214 218 197 186 213 226 209 210 215 199 203 197 200 200
342 340 337 344 347 352 329 335 326 317 287 300 233 259 260 281 299 284 233 217 202 230 220 208 216 225 232 223 215 218 227 232 196 178 206 223 221 224 215 195 201 210 201 200 200
342 339 336 336 328 329 336 331 326 328 283 63 262 310 272 270 278 248 216 238 231 242 198 229 206 214 227 231 219 211 218 231 184 183 204 221 217 212 205 212 214 204 207 192 194
342 339 335 342 330 341 326 326 315 318 299 11 27 317 300 264 268 225 214 220 255 249 246 220 228 213 199 218 221 220 205 221 201 205 201 202 242 196 202 208 203 203 202 192 186
343 338 335 349 320 315 321 319 311 239 348 343 338 320 315 322 63 141 182 200 20 265 253 247 240 228 228 198 225 215 207 206 214 213 206 208 212 225 187 202 187 192 197 189 180
343 338 358 346 327 323 317 301 282 351 350 346 325 329 316 308 314 202 202 170 176 175 230 232 233 246 219 193 204 211 200 189 194 195 207 188 202 248 176 187 179 186 188 186 164
343 345 339 342 326 320 318 272 311 2 353 333 326 312 179 6 335 319 279 271 209 216 213 215 217 222 203 207 193 197 180 195 179 195 197 186 209 204 66 96 195 180 152 146 168
344 347 325 332 336 332 292 316 6 341 336 324 318 333 348 355 339 306 289 249 195 217 210 214 212 184 242 186 213 186 201 208 198 201 196 183 147 78 124 105 89 103 122 160 166
346 338 315 340 331 323 335 346 340 332 340 329 298 332 329 342 329 332 321 62 350 253 224 296 230 182 192 178 218 190 206 202 226 196 220 188 163 156 162 150 121 116 125 144 143
354 307 346 345 323 340 32 324 322 330 337 289 292 287 302 326 303 291 344 17 337 302 244 323 250 213 185 199 193 196 193 216 224 231 203 185 175 158 161 156 141 134 144 150 137
340 337 338 1 35 2 5 333 306 327 339 342 284 276 281 309 290 293 357 234 313 330 246 230 260 196 190 179 221 194 202 208 209 227 249 168 81 170 135 136 137 142 152 138 137
334 314 353 8 23 1 347 308 346 341 337 345 300 274 256 294 303 299 314 336 258 334 202 221 220 196 195 187 266 244 198 207 221 237 220 173 132 91 112 127 140 137 131 132 127
332 344 348 320 4 359 332 336 336 345 327 333 297 316 306 300 283 284 299 320 320 293 246 243 260 202 187 191 182 214 199 200 206 238 214 188 132 120 122 130 130 132 133 131 128
12 15 9 319 340 311 352 317 340 340 326 314 285 327 325 300 302 258 314 311 306 342 357 128 232 186 92 222 195 198 201 194 216 213 217 139 147 145 135 135 135 136 135 133 130
0 354 330 293 295 314 354 348 329 331 330 307 296 319 316 303 292 299 304 306 283 317 292 204 245 145 200 256 233 197 211 186 191 209 75 161 134 140 130 136 139 141 138 131 128
351 345 307 300 337 341 353 330 330 323 323 322 327 317 320 319 309 295 285 275 260 281 313 309 186 112 195 211 182 196 196 192 121 224 147 169 133 133 133 137 144 142 137 129 124